Torna al catalogo

IRIDIUM 33 DEB

AttivoPO
NORAD 46971·DEBRIS·🇺🇸 United States

Lanciato Sep 14, 1997 da Baikonur Cosmodrome

Loading…

Prossimi Passaggi (prossime 24 ore)

TLE

In scadenzaSource: Space-Track

Epoca: Sep 8, 2026, 03:01 UTC

1 46971U 97051ACD 26251.12637186  .00058748  00000-0  29133-2 0  9991
2 46971  86.3112 203.9900 0010170  69.6972 302.2384 15.17437417682896

Traccia IRIDIUM 33 DEB in tempo reale con AllMySat

Download on the App Store